Date String (YYYY-MM-DD hh:mm:ss) UTC,Instrument flags,absolute air pressure of the measurement (hPa),sample flow rate (lpm),inlet stack bypass flow (lpm),air temperature of the measurement (°C),ambient temperature measured by the external sensor (°C),aerosol sample conditioner tube jacket temperature (°C),OPC LED temperature (°C),internal box temperature (°C),relative humidity of the measurement (%),span deviation,mass concentration of particles derived from Lorenz-Mie calculation of OPC scattering (μg/m³),mass concentration of particles derived from Lorenz-Mie calculation of OPC scattering (μg/m³),mass concentration of particles derived from Lorenz-Mie calculation of OPC scattering (μg/m³)
DateTimeUTC,F1_M11,P_M11,Q1_M11,Q2_M11,T1_M11,T2_M11,T3_M11,T4_M11,T5_M11,U1_M11,ZSPAN_M11,X0_M11,X2_M11,X1_M11
2023-07-27 18:00:00,SystemResetWarning,0833.5,5.00,000.00,029.9,025.1,000.0,038.0,030.5,21.8,0000.0,0009.14,0003.32,0002.53
2023-07-27 18:01:00,SystemResetWarning,0833.4,5.01,000.00,029.9,025.3,000.0,038.0,030.5,21.6,0000.0,0009.56,0003.33,0002.50
2023-07-27 18:02:00,SystemResetWarning,0833.4,5.01,000.00,029.8,025.6,000.0,038.0,030.4,21.1,0000.0,0009.92,0003.30,0002.47
2023-07-27 18:03:00,SystemResetWarning,0833.4,5.00,000.00,029.7,026.1,000.0,038.0,030.4,21.7,0000.0,0009.92,0003.30,0002.44
2023-07-27 18:04:00,SystemResetWarning,0833.4,5.00,000.00,029.7,026.5,000.0,038.0,030.5,20.4,0000.0,0008.94,0003.27,0002.39
2023-07-27 18:05:00,SystemResetWarning,0833.4,5.01,000.00,029.7,026.8,000.0,038.0,030.6,20.5,0000.0,0008.88,0003.29,0002.37
2023-07-27 18:06:00,SystemResetWarning,0833.4,4.99,000.00,029.7,026.4,000.0,037.9,030.6,20.3,0000.0,0008.72,0003.25,0002.35
2023-07-27 18:07:00,SystemResetWarning,0833.5,4.99,000.00,029.6,025.2,000.0,037.8,030.4,20.3,0000.0,0008.62,0003.20,0002.32
2023-07-27 18:08:00,SystemResetWarning,0833.4,5.01,000.00,029.6,024.9,000.0,037.7,030.3,21.3,0000.0,0007.76,0003.20,0002.31
2023-07-27 18:09:00,SystemResetWarning,0833.5,5.01,000.00,029.5,025.3,000.0,037.7,030.2,21.4,0000.0,0007.64,0003.18,0002.32
2023-07-27 18:10:00,SystemResetWarning,0833.4,4.99,000.00,029.4,025.7,000.0,037.7,030.2,21.8,0000.0,0007.30,0003.14,0002.32
2023-07-27 18:11:00,SystemResetWarning,0833.5,5.00,000.00,029.4,026.2,000.0,037.7,030.3,22.7,0000.0,0007.44,0003.16,0002.34
2023-07-27 18:12:00,SystemResetWarning,0833.4,5.01,000.00,029.4,026.6,000.0,037.7,030.4,23.3,0000.0,0007.52,0003.18,0002.35
2023-07-27 18:13:00,SystemResetWarning,0833.4,5.01,000.00,029.4,027.0,000.0,037.7,030.5,23.1,0000.0,0006.96,0003.17,0002.35
2023-07-27 18:14:00,SystemResetWarning,0833.4,4.99,000.00,029.4,027.1,000.0,037.7,030.6,23.6,0000.0,0007.53,0003.20,0002.37
2023-07-27 18:15:00,SystemResetWarning,0833.4,4.98,000.00,029.4,026.0,000.0,037.6,030.5,24.4,0000.0,0008.06,0003.19,0002.38
2023-07-27 18:16:00,SystemResetWarning,0833.4,5.01,000.00,029.3,025.0,000.0,037.5,030.3,21.7,0000.0,0008.16,0003.19,0002.38
2023-07-27 18:17:00,SystemResetWarning,0833.4,5.00,000.00,029.3,025.3,000.0,037.4,030.3,22.9,0000.0,0008.14,0003.20,0002.37
2023-07-27 18:18:00,SystemResetWarning,0833.4,4.99,000.00,029.2,025.6,000.0,037.4,030.2,21.7,0000.0,0008.24,0003.22,0002.37
2023-07-27 18:19:00,SystemResetWarning,0833.4,5.00,000.00,029.2,026.1,000.0,037.5,030.2,21.7,0000.0,0008.68,0003.24,0002.36
2023-07-27 18:20:00,SystemResetWarning,0833.4,5.01,000.00,029.2,026.5,000.0,037.5,030.3,21.5,0000.0,0008.76,0003.26,0002.34
2023-07-27 18:21:00,SystemResetWarning,0833.4,5.00,000.00,029.2,026.9,000.0,037.5,030.5,22.7,0000.0,0008.98,0003.28,0002.33
2023-07-27 18:22:00,SystemResetWarning,0833.4,4.99,000.00,029.2,027.1,000.0,037.5,030.5,21.1,0000.0,0009.50,0003.32,0002.32
2023-07-27 18:23:00,SystemResetWarning,0833.4,4.99,000.00,029.2,025.9,000.0,037.4,030.4,20.9,0000.0,0008.93,0003.27,0002.30
2023-07-27 18:24:00,SystemResetWarning,0833.4,5.00,000.00,029.1,025.0,000.0,037.3,030.2,20.9,0000.0,0008.74,0003.27,0002.29
2023-07-27 18:25:00,SystemResetWarning,0833.4,5.01,000.00,029.1,025.3,000.0,037.2,030.2,22.2,0000.0,0008.50,0003.28,0002.29
2023-07-27 18:26:00,SystemResetWarning,0833.4,5.01,000.00,029.0,025.7,000.0,037.3,030.1,21.1,0000.0,0007.92,0003.28,0002.29
2023-07-27 18:27:00,SystemResetWarning,0833.3,5.00,000.00,029.0,026.1,000.0,037.3,030.2,20.2,0000.0,0007.79,0003.26,0002.29
2023-07-27 18:28:00,SystemResetWarning,0833.3,5.01,000.00,029.0,026.6,000.0,037.3,030.3,21.4,0000.0,0008.73,0003.30,0002.29
2023-07-27 18:29:00,SystemResetWarning,0833.3,4.99,000.00,029.0,026.9,000.0,037.3,030.4,20.9,0000.0,0009.05,0003.34,0002.30
2023-07-27 18:30:00,SystemResetWarning,0833.2,4.99,000.00,029.1,027.1,000.0,037.3,030.5,21.1,0000.0,0008.75,0003.34,0002.32
2023-07-27 18:31:00,SystemResetWarning,0833.2,5.00,000.00,029.1,026.0,000.0,037.2,030.4,20.5,0000.0,0008.75,0003.33,0002.31
2023-07-27 18:32:00,SystemResetWarning,0833.2,5.00,000.00,029.0,024.9,000.0,037.1,030.2,19.5,0000.0,0008.57,0003.30,0002.32
2023-07-27 18:33:00,SystemResetWarning,0833.2,5.02,000.00,028.9,025.2,000.0,037.1,030.1,21.0,0000.0,0008.04,0003.27,0002.32
2023-07-27 18:34:00,SystemResetWarning,0833.2,5.00,000.00,028.9,025.6,000.0,037.1,030.0,21.8,0000.0,0008.84,0003.28,0002.33
2023-07-27 18:35:00,SystemResetWarning,0833.2,4.99,000.00,028.9,026.0,000.0,037.1,030.1,21.6,0000.0,0009.29,0003.32,0002.33
2023-07-27 18:36:00,SystemResetWarning,0833.2,5.00,000.00,028.9,026.4,000.0,037.2,030.2,22.6,0000.0,0009.28,0003.31,0002.32
2023-07-27 18:37:00,SystemResetWarning,0833.3,5.00,000.00,028.9,026.8,000.0,037.2,030.3,21.9,0000.0,0009.37,0003.33,0002.32
2023-07-27 18:38:00,SystemResetWarning,0833.2,5.01,000.00,028.9,027.0,000.0,037.2,030.4,20.5,0000.0,0009.64,0003.34,0002.30
2023-07-27 18:39:00,SystemResetWarning,0833.3,4.98,000.00,028.9,025.9,000.0,037.1,030.3,21.0,0000.0,0009.31,0003.32,0002.30
2023-07-27 18:40:00,SystemResetWarning,0833.3,5.02,000.00,028.9,024.9,000.0,037.0,030.2,21.7,0000.0,0008.88,0003.27,0002.29
2023-07-27 18:41:00,SystemResetWarning,0833.3,5.00,000.00,028.8,025.3,000.0,036.9,030.1,21.8,0000.0,0008.94,0003.24,0002.28
2023-07-27 18:42:00,SystemResetWarning,0833.3,4.99,000.00,028.8,025.6,000.0,037.0,030.1,22.0,0000.0,0009.06,0003.21,0002.28
2023-07-27 18:43:00,SystemResetWarning,0833.2,5.00,000.00,028.8,026.1,000.0,037.0,030.1,21.0,0000.0,0008.97,0003.21,0002.28
2023-07-27 18:44:00,SystemResetWarning,0833.2,5.00,000.00,028.8,026.5,000.0,037.0,030.2,22.5,0000.0,0008.90,0003.20,0002.29
2023-07-27 18:45:00,SystemResetWarning,0833.3,5.00,000.00,028.8,026.9,000.0,037.1,030.3,22.8,0000.0,0008.27,0003.23,0002.30
2023-07-27 18:46:00,SystemResetWarning,0833.3,5.01,000.00,028.9,027.2,000.0,037.1,030.4,20.8,0000.0,0007.61,0003.21,0002.30
2023-07-27 18:47:00,SystemResetWarning,0833.2,4.98,000.00,028.9,026.8,000.0,037.0,030.4,21.2,0000.0,0007.60,0003.19,0002.30
2023-07-27 18:48:00,SystemResetWarning,0833.2,5.00,000.00,028.8,025.3,000.0,037.0,030.2,21.3,0000.0,0007.39,0003.13,0002.31
2023-07-27 18:49:00,SystemResetWarning,0833.2,5.01,000.00,028.8,025.1,000.0,036.9,030.1,22.3,0000.0,0007.29,0003.13,0002.32
2023-07-27 18:50:00,SystemResetWarning,0833.3,5.00,000.00,028.7,025.5,000.0,036.9,030.1,23.4,0000.0,0007.59,0003.13,0002.34
2023-07-27 18:51:00,SystemResetWarning,0833.3,5.00,000.00,028.7,025.9,000.0,037.0,030.0,22.4,0000.0,0007.05,0003.11,0002.34
2023-07-27 18:52:00,SystemResetWarning,0833.2,5.01,000.00,028.7,026.3,000.0,037.0,030.1,21.2,0000.0,0007.14,0003.14,0002.35
2023-07-27 18:53:00,SystemResetWarning,0833.2,5.00,000.00,028.7,026.7,000.0,037.0,030.3,21.4,0000.0,0006.54,0003.14,0002.34
2023-07-27 18:54:00,SystemResetWarning,0833.3,4.99,000.00,028.8,027.1,000.0,037.0,030.4,22.0,0000.0,0006.71,0003.17,0002.34
2023-07-27 18:55:00,SystemResetWarning,0833.2,4.99,000.00,028.8,026.7,000.0,037.0,030.4,22.5,0000.0,0006.65,0003.16,0002.34
2023-07-27 18:56:00,SystemResetWarning,0833.2,5.01,000.00,028.8,025.3,000.0,036.9,030.2,22.9,0000.0,0006.58,0003.12,0002.32
2023-07-27 18:57:00,SystemResetWarning,0833.2,5.01,000.00,028.7,025.0,000.0,036.8,030.1,24.0,0000.0,0006.59,0003.11,0002.32
2023-07-27 18:58:00,SystemResetWarning,0833.1,5.00,000.00,028.7,025.4,000.0,036.8,030.0,22.2,0000.0,0006.32,0003.13,0002.32
2023-07-27 18:59:00,SystemResetWarning,0833.2,5.00,000.00,028.6,025.8,000.0,036.9,030.0,22.5,0000.0,0006.38,0003.15,0002.32
